SCP
0 0 0 0 0 0 0 0 0 0 1 1 0 0 1 1 0 -0 0 0 0 0 -0 -0 -0 -0 -0 -0 -0 -0 -0 -0 -0
0 0 0 0 0 -0 -0 0 0 1 2 2 1 0 1 1 1 -0 -0 0 0 0 0 0 0 -0 -0 -0 -0 -0 0 0 -0
0 0 0 0 0 -0 -0 -0 0 0 1 2 1 1 1 1 0 0 0 0 0 0 -0 -0 0 -0 -0 0 -0 -0 -0 0 0
0 0 0 0 0 0 0 0 0 0 0 0 1 1 1 1 1 0 0 0 0 0 -0 -0 0 -0 -0 0 -0 -0 -0 0 0
0 0 0 0 0 0 0 0 0 0 0 0 0 1 2 1 1 1 0 0 -0 0 -0 -0 -0 -0 -0 0 0 0 -0 -0 0
0 0 0 0 0 0 0 0 0 0 0 0 0 1 1 1 1 1 1 0 0 0 0 -0 -0 0 0 0 0 0 0 0 0
0 0 0 0 0 0 0 0 0 0 0 0 0 1 1 1 1 1 1 1 1 0 0 0 -0 0 0 0 0 0 0 0 0
0 0 0 0 0 0 0 0 0 0 0 1 0 1 1 2 2 2 2 1 1 1 1 0 0 0 0 0 0 0 0 0 0
0 0 0 0 0 0 0 0 -0 0 0 1 1 2 1 2 2 2 2 2 1 1 1 0 0 -0 0 -0 -0 -0 0 0 0
0 0 0 0 0 0 0 0 0 0 0 1 1 2 2 3 3 2 2 2 2 1 1 1 1 0 0 0 0 -0 0 -0 -0
0 0 0 0 0 0 0 0 0 0 0 1 1 2 2 2 2 3 3 3 2 2 2 1 1 1 0 0 0 0 0 0 -0
0 0 0 0 0 0 0 0 0 0 0 0 1 2 2 2 2 2 3 2 2 2 2 2 1 1 0 0 0 0 0 0 -0
0 0 0 1 1 1 0 0 0 0 0 0 1 1 1 2 2 2 2 2 3 2 2 1 1 1 0 0 0 0 0 0 -0
0 -0 0 2 3 2 0 0 0 1 0 0 0 1 1 2 2 2 2 3 3 3 2 2 1 1 1 0 0 0 0 -0 0
0 0 0 1 7 2 1 0 1 3 1 1 1 1 1 2 1 1 1 1 2 2 2 2 2 1 1 1 0 0 0 -0 -0
0 0 0 0 2 7 10 3 2 1 2 3 1 1 1 1 1 1 1 1 1 1 2 2 1 1 1 1 0 0 0 0 -0
0 0 0 0 0 0 0 1 7 9 7 4 1 0 0 1 0 0 1 1 1 1 1 1 1 1 0 1 1 1 1 1 0
0 0 0 0 0 0 0 0 0 0 7 4 3 1 1 1 1 1 2 2 1 1 1 1 1 1 1 1 1 1 2 2 2
0 0 0 0 0 0 0 0 0 0 0 0 6 3 3 2 2 2 2 2 2 0 0 0 0 0 1 2 2 3 2 2 2
0 0 0 0 0 0 0 0 0 0 0 0 0 3 9 8 6 3 3 4 3 3 1 0 0 0 0 0 1 1 0 0 0
Wind_Speed_500mb
55 60 65 70 76 76 78 81 81 79 81 85 87 87 85 78 78 60 54 49 39 35 32 29 29 31 30 26 24 22 20 14 12
46 59 65 73 77 80 79 80 88 91 90 92 91 86 86 80 81 76 58 55 52 43 37 31 29 30 31 31 28 30 24 19 20
48 52 56 65 72 77 79 80 81 84 86 93 95 87 88 80 82 81 77 63 61 50 44 42 34 30 31 32 31 34 34 25 22
59 48 56 60 69 74 79 77 77 83 84 81 80 90 91 88 84 82 80 69 67 63 55 52 43 39 34 35 33 35 39 36 29
62 67 62 62 62 64 70 79 81 83 83 81 78 87 93 94 91 86 74 77 69 65 59 54 47 46 41 40 41 40 43 41 32
52 48 51 52 57 64 70 77 84 87 86 84 80 79 80 83 86 84 82 81 76 70 64 57 54 53 50 46 46 44 44 46 42
14 17 37 48 53 60 67 74 85 90 86 83 82 77 76 83 90 92 86 83 78 73 68 61 60 59 55 52 49 51 49 46 49
11 14 17 39 51 59 64 69 81 86 84 83 81 86 81 86 92 90 88 85 79 75 70 67 63 61 58 55 55 51 55 52 49
19 19 17 16 31 44 54 66 77 83 88 89 88 90 92 90 97 96 92 88 85 79 74 71 67 65 63 60 58 56 60 57 53
18 21 24 23 28 38 49 60 68 84 97 91 91 93 94 94 98 98 95 91 87 85 78 74 73 70 68 67 65 63 63 62 63
19 23 27 30 34 39 47 51 58 65 68 84 86 88 95 92 97 98 94 91 89 84 79 79 76 74 73 71 70 67 66 65 65
20 28 33 38 39 41 40 52 60 68 70 76 80 88 97 98 91 95 94 91 90 84 79 78 79 79 77 77 74 70 68 66 68
23 27 29 37 42 42 46 50 61 69 75 83 94 97 94 93 89 89 91 89 88 83 80 80 77 78 78 76 74 70 67 64 66
16 20 25 30 30 39 41 46 63 75 76 90 81 67 66 75 80 83 82 80 76 75 76 69 74 68 69 72 71 70 69 67 70
27 28 24 22 12 13 25 37 60 67 71 63 64 63 62 69 80 74 66 75 73 70 70 69 67 66 61 58 68 67 68 67 69
42 42 39 31 24 24 26 25 39 45 54 58 54 58 61 62 64 65 59 67 68 64 66 58 58 54 52 50 48 56 63 64 64
50 57 44 41 34 37 38 31 33 35 40 46 49 50 50 48 49 50 50 46 48 50 52 53 53 50 49 46 46 46 43 57 62
45 50 55 46 41 46 47 38 27 28 28 35 42 44 43 42 42 48 45 45 41 44 44 44 46 47 45 46 47 47 48 46 43
36 40 41 48 50 53 50 42 36 36 44 46 33 35 37 38 37 37 39 40 38 47 46 49 54 48 46 40 43 47 52 51 46
24 29 36 37 40 40 41 41 40 39 38 41 46 39 42 38 33 36 43 39 33 23 25 43 48 52 59 57 40 55 56 48 47
Wind_Direction_500mb
205 207 207 205 206 204 203 204 204 203 207 213 211 214 217 219 220 216 217 222 212 222 220 225 227 238 234 246 237 245 239 227 215
198 206 209 207 207 206 205 204 204 204 204 215 213 211 216 218 217 215 217 219 229 222 223 224 229 231 234 233 235 236 230 224 238
213 207 211 210 209 209 208 207 207 206 207 214 213 210 215 214 218 220 222 227 227 228 225 231 228 243 235 229 231 231 232 229 239
209 207 210 211 210 211 210 208 206 206 206 207 207 211 215 217 218 222 225 225 232 235 234 237 238 243 239 228 225 230 232 234 229
223 217 216 218 215 211 210 209 207 205 206 205 206 209 215 220 221 222 221 224 226 230 230 230 229 236 238 234 230 231 236 239 235
220 224 226 226 217 215 212 210 208 206 205 204 204 203 207 213 216 218 220 224 224 228 227 228 227 232 235 234 232 231 235 240 238
260 248 238 226 218 214 210 209 208 207 206 205 204 204 202 209 217 219 218 218 222 226 228 228 227 230 234 235 235 235 236 238 241
251 252 236 221 216 213 210 208 207 207 207 205 204 205 204 209 214 216 220 221 221 225 228 229 230 230 233 237 238 235 239 237 238
276 262 257 237 223 220 215 211 208 206 204 204 201 205 206 208 213 215 217 221 224 227 229 231 231 230 231 234 236 236 238 241 240
276 272 268 258 242 228 220 214 210 208 205 203 203 204 206 208 215 215 216 219 222 225 225 230 232 230 230 233 237 239 241 242 244
289 282 275 266 254 241 230 223 216 210 208 204 204 203 210 212 215 217 216 218 222 224 225 228 230 230 231 233 237 240 242 244 246
300 292 285 274 263 251 235 221 214 209 204 204 203 204 212 216 215 215 215 217 220 221 221 224 226 229 231 234 236 240 242 244 246
319 304 296 286 270 253 237 221 208 205 203 199 202 208 210 211 211 213 214 215 218 219 221 224 225 228 231 235 238 241 243 244 245
345 328 322 308 280 247 231 210 200 202 199 204 206 202 201 204 207 210 213 216 216 218 221 221 225 228 232 236 238 239 241 239 240
35 30 11 14 26 205 200 195 194 193 199 199 200 197 197 202 208 207 208 215 217 217 218 221 224 226 229 233 237 237 239 238 237
48 49 45 45 51 78 114 167 182 193 197 195 195 193 195 200 203 205 203 209 210 210 214 212 218 221 224 226 232 239 239 242 240
47 52 51 56 65 71 75 109 142 166 185 188 187 188 188 190 195 198 198 206 208 209 214 216 216 220 223 226 226 227 229 233 233
45 51 55 53 54 61 79 85 107 143 144 179 179 180 182 185 191 198 198 200 208 213 214 219 220 219 222 222 225 225 223 221 232
36 41 42 48 52 59 62 73 74 100 131 136 154 167 174 180 186 195 190 196 202 207 208 220 216 216 219 228 226 228 234 230 219
32 36 40 35 30 48 52 57 66 70 93 130 126 144 146 153 172 186 183 184 188 199 228 235 239 236 227 224 222 228 230 233 231
Wind_Speed_850mb
55 60 65 70 76 76 78 81 81 79 81 85 87 87 85 78 78 60 54 49 39 35 32 29 29 31 30 26 24 22 20 14 12
46 59 65 73 77 80 79 80 88 91 90 92 91 86 86 80 81 76 58 55 52 43 37 31 29 30 31 31 28 30 24 19 20
48 52 56 65 72 77 79 80 81 84 86 93 95 87 88 80 82 81 77 63 61 50 44 42 34 30 31 32 31 34 34 25 22
59 48 56 60 69 74 79 77 77 83 84 81 80 90 91 88 84 82 80 69 67 63 55 52 43 39 34 35 33 35 39 36 29
62 67 62 62 62 64 70 79 81 83 83 81 78 87 93 94 91 86 74 77 69 65 59 54 47 46 41 40 41 40 43 41 32
52 48 51 52 57 64 70 77 84 87 86 84 80 79 80 83 86 84 82 81 76 70 64 57 54 53 50 46 46 44 44 46 42
14 17 37 48 53 60 67 74 85 90 86 83 82 77 76 83 90 92 86 83 78 73 68 61 60 59 55 52 49 51 49 46 49
11 14 17 39 51 59 64 69 81 86 84 83 81 86 81 86 92 90 88 85 79 75 70 67 63 61 58 55 55 51 55 52 49
19 19 17 16 31 44 54 66 77 83 88 89 88 90 92 90 97 96 92 88 85 79 74 71 67 65 63 60 58 56 60 57 53
18 21 24 23 28 38 49 60 68 84 97 91 91 93 94 94 98 98 95 91 87 85 78 74 73 70 68 67 65 63 63 62 63
19 23 27 30 34 39 47 51 58 65 68 84 86 88 95 92 97 98 94 91 89 84 79 79 76 74 73 71 70 67 66 65 65
20 28 33 38 39 41 40 52 60 68 70 76 80 88 97 98 91 95 94 91 90 84 79 78 79 79 77 77 74 70 68 66 68
23 27 29 37 42 42 46 50 61 69 75 83 94 97 94 93 89 89 91 89 88 83 80 80 77 78 78 76 74 70 67 64 66
16 20 25 30 30 39 41 46 63 75 76 90 81 67 66 75 80 83 82 80 76 75 76 69 74 68 69 72 71 70 69 67 70
27 28 24 22 12 13 25 37 60 67 71 63 64 63 62 69 80 74 66 75 73 70 70 69 67 66 61 58 68 67 68 67 69
42 42 39 31 24 24 26 25 39 45 54 58 54 58 61 62 64 65 59 67 68 64 66 58 58 54 52 50 48 56 63 64 64
50 57 44 41 34 37 38 31 33 35 40 46 49 50 50 48 49 50 50 46 48 50 52 53 53 50 49 46 46 46 43 57 62
45 50 55 46 41 46 47 38 27 28 28 35 42 44 43 42 42 48 45 45 41 44 44 44 46 47 45 46 47 47 48 46 43
36 40 41 48 50 53 50 42 36 36 44 46 33 35 37 38 37 37 39 40 38 47 46 49 54 48 46 40 43 47 52 51 46
24 29 36 37 40 40 41 41 40 39 38 41 46 39 42 38 33 36 43 39 33 23 25 43 48 52 59 57 40 55 56 48 47
Wind_Direction_850mb
205 207 207 205 206 204 203 204 204 203 207 213 211 214 217 219 220 216 217 222 212 222 220 225 227 238 234 246 237 245 239 227 215
198 206 209 207 207 206 205 204 204 204 204 215 213 211 216 218 217 215 217 219 229 222 223 224 229 231 234 233 235 236 230 224 238
213 207 211 210 209 209 208 207 207 206 207 214 213 210 215 214 218 220 222 227 227 228 225 231 228 243 235 229 231 231 232 229 239
209 207 210 211 210 211 210 208 206 206 206 207 207 211 215 217 218 222 225 225 232 235 234 237 238 243 239 228 225 230 232 234 229
223 217 216 218 215 211 210 209 207 205 206 205 206 209 215 220 221 222 221 224 226 230 230 230 229 236 238 234 230 231 236 239 235
220 224 226 226 217 215 212 210 208 206 205 204 204 203 207 213 216 218 220 224 224 228 227 228 227 232 235 234 232 231 235 240 238
260 248 238 226 218 214 210 209 208 207 206 205 204 204 202 209 217 219 218 218 222 226 228 228 227 230 234 235 235 235 236 238 241
251 252 236 221 216 213 210 208 207 207 207 205 204 205 204 209 214 216 220 221 221 225 228 229 230 230 233 237 238 235 239 237 238
276 262 257 237 223 220 215 211 208 206 204 204 201 205 206 208 213 215 217 221 224 227 229 231 231 230 231 234 236 236 238 241 240
276 272 268 258 242 228 220 214 210 208 205 203 203 204 206 208 215 215 216 219 222 225 225 230 232 230 230 233 237 239 241 242 244
289 282 275 266 254 241 230 223 216 210 208 204 204 203 210 212 215 217 216 218 222 224 225 228 230 230 231 233 237 240 242 244 246
300 292 285 274 263 251 235 221 214 209 204 204 203 204 212 216 215 215 215 217 220 221 221 224 226 229 231 234 236 240 242 244 246
319 304 296 286 270 253 237 221 208 205 203 199 202 208 210 211 211 213 214 215 218 219 221 224 225 228 231 235 238 241 243 244 245
345 328 322 308 280 247 231 210 200 202 199 204 206 202 201 204 207 210 213 216 216 218 221 221 225 228 232 236 238 239 241 239 240
35 30 11 14 26 205 200 195 194 193 199 199 200 197 197 202 208 207 208 215 217 217 218 221 224 226 229 233 237 237 239 238 237
48 49 45 45 51 78 114 167 182 193 197 195 195 193 195 200 203 205 203 209 210 210 214 212 218 221 224 226 232 239 239 242 240
47 52 51 56 65 71 75 109 142 166 185 188 187 188 188 190 195 198 198 206 208 209 214 216 216 220 223 226 226 227 229 233 233
45 51 55 53 54 61 79 85 107 143 144 179 179 180 182 185 191 198 198 200 208 213 214 219 220 219 222 222 225 225 223 221 232
36 41 42 48 52 59 62 73 74 100 131 136 154 167 174 180 186 195 190 196 202 207 208 220 216 216 219 228 226 228 234 230 219
32 36 40 35 30 48 52 57 66 70 93 130 126 144 146 153 172 186 183 184 188 199 228 235 239 236 227 224 222 228 230 233 231